DUBAISAT-2

Last updated on Mon Sep 21 2026 00:02:45 GMT+0000 (Coordinated Universal Time)

1 39419U 13066D 26263.59730074 .00000395 00000+0 27583-4 0 9991 2 39419 97.4661 251.3296 0012721 68.0382 292.2199 15.10751345700798
UTC large
Height (km)
Speed (km/s)
/
Latitude / Longitude
Inclination (degrees)
Orbital Period (minutes)
Azimuth
Elevation
Range (km)
Doppler Factor

Next 0 passes for location: London (51.5072 / 0.1276)

No passes found over London.
DUBAISAT-2